Other Public Products
Issued by NWS Grand Forks, ND

Home | Current Version | Previous Version | Graphics & Text | Print | Product List | Glossary On
Versions: 1 2 3 4 5 6 7 8 9 10 11 12 13 14 15 16 17 18 19 20 21 22 23 24 25 26 27 28 29 30 31 32 33 34 35 36 37 38 39 40 41 42 43 44 45 46 47 48 49 50
000
FPUS83 KFGF 201731
OPUFGF
PRAIRIE TO PINES WEATHER ROUNDUP
NATIONAL WEATHER SERVICE EASTERN NORTH DAKOTA/GRAND FORKS ND
1100 AM CST FRI JAN 20 2017

 **SATELLITE DATA USED TO AUGMENT SKY COVER AT AUTOMATED STATIONS**
 *****  WEATHER ACROSS EASTERN NORTH DAKOTA  *****

CITY           SKY/WX    TMP DP  RH WIND       PRES   REMARKS
GRAND FORKS    CLOUDY    36  34  92 SE15      29.51S FOG
GRAND FORKS AF FOG       34  34 100 S8        29.49F VSB 3/4
GRAND CITY NWS NOT AVBL
BUXTON           N/A     34  34  99 SE9         N/A
DEVILS LAKE    CLOUDY    34  33  96 SE9       29.44F FOG
FARGO          CLOUDY    38  35  89 SE10      29.50F FOG
WAHPETON ARPT  CLOUDY    34  32  93 SE10      29.52S
$$

 *****  WEATHER ACROSS CENTRAL AND WESTERN NORTH DAKOTA  *****

CITY           SKY/WX    TMP DP  RH WIND       PRES   REMARKS
JAMESTOWN      FOG       33  33 100 SE13      29.43S VSB 1/2 WCI  24
BISMARCK       CLOUDY    26  24  92 CALM      29.42F FOG
MINOT          FAIR      22  18  85 SE6       29.39S WCI  14
MINOT AFB      FAIR      18  16  91 SE5       29.39R WCI  11
GARRISON         N/A     14  11  87 SE6       29.40R WCI   5
WILLISTON      FAIR      20  18  92 CALM      29.40R
DICKINSON      FAIR      26  23  88 W12       29.34S WCI  16
HETTINGER      FAIR      31  26  82 NW12      29.37R WCI  22
$$

 *****  OTHER OBSERVATIONS NORTHEAST NORTH DAKOTA  *****

CITY           SKY/WX    TMP DP  RH WIND       PRES   REMARKS
WALHALLA       NOT AVBL
LANGDON        NOT AVBL
CAVALIER       FOG       36  36 100 SE7       29.50F VSB 1/2
GRAFTON        FOG       34  34 100 SE12      29.52F VSB 1/2
CANDO          NOT AVBL
FORT TOTTEN    NOT AVBL
ROLLA            N/A    N/A N/A N/A MISG        N/A
RUGBY          FOG       28  28 100 S5        29.42F VSB 1/2 WCI  23
 ***** THE ABOVE OBSERVATIONS ARE NON NWS ARE NOT QUALITY
        CONTROLLED AND MAY MIS-REPORT RAIN FOR SNOW...
$$

 *****  OTHER OBSERVATIONS SOUTHEAST NORTH DAKOTA *****

CITY           SKY/WX    TMP DP  RH WIND       PRES   REMARKS
COOPERSTOWN    FOG       34  34 100 SE10      29.47F VSB 3/4
VALLEY CITY    FOG       32  32 100 SE13      29.48S VSB 1/4 WCI  22
OAKES          NOT AVBL
GWINNER        CLOUDY    34  34 100 SE14      29.47F WCI  24
BUFFALO          N/A     33  32  96 NE13        N/A  WCI  24
WYNDMERE         N/A     34  34 100 SE9         N/A
 ***** THE ABOVE OBSERVATIONS ARE NON NWS ARE NOT QUALITY
       CONTROLLED AND MAY MIS-REPORT RAIN FOR SNOW...
$$

  *****  WEATHER ACROSS NORTHERN MINNESOTA  *****

CITY           SKY/WX    TMP DP  RH WIND       PRES   REMARKS
FLAG ISLAND    FOG       34  34 100 SE7       29.56F VSB 1/2
WARROAD        CLOUDY    36  30  80 E5        29.55F FOG
ROSEAU         CLOUDY    36  30  80 SE6       29.54F HAZE
HALLOCK        CLOUDY    36  36 100 SE12      29.51F
THF RVR FALLS  CLOUDY    36  34  92 SE9       29.53F
HALSTAD          N/A     34  34  98 S9          N/A
FOSSTON        CLOUDY    37  36  93 E13G18    29.51F
BAUDETTE       CLOUDY    35  34  96 SE7       29.57S FOG
WASKISH        CLOUDY    37  36  93 E7        29.56F
CROOKSTON      CLOUDY    34  34 100 SE8       29.53S FOG
$$
  *****  WEATHER ACROSS CENTRAL AND WEST MINNESOTA  *****

CITY           SKY/WX    TMP DP  RH WIND       PRES   REMARKS
BEMIDJI        RAIN      34  33  97 SE9       29.54F
PARK RAPIDS    CLOUDY    35  32  88 SE8       29.53F FOG
WADENA         FOG       34  34 100 SE8       29.53F VSB 1/2
DETROIT LAKES  CLOUDY    34  34 100 SE12      29.52S FOG
MOORHEAD       CLOUDY    34  34 100 SE9       29.52S FOG
FERGUS FALLS   CLOUDY    34  34 100 SE13      29.57S FOG     WCI  25
ELBOW LAKE     SNOW      33  33 100 SE9       29.53F VSB 1/2
MORRIS MN      FOG       34  34 100 SE10      29.52F VSB 1/2
STAPLES        CLOUDY    34  34 100 SE6       29.55S FOG
WHEATON        CLOUDY    41  41 100 E12       29.53F FOG
$$
  *****  WEATHER ELSEWHERE ACROSS MINNESOTA  *****

CITY           SKY/WX    TMP DP  RH WIND       PRES   REMARKS
DULUTH         LGT RAIN  35  34  96 E10       29.63F FOG
INTRNTL FALLS  CLOUDY    36  33  89 SE7       29.60F FOG
ELY            FAIR      32  32 100 CALM      29.63F
CLOQUET        LGT RAIN  36  34  93 E8        29.61F VSB 1
BRAINERD       CLOUDY    35  34  96 SE7       29.57S
HIBBING        CLOUDY    33  33 100 SE10      29.61F FOG     WCI  25
ALEXANDRIA     FOG       33  33 100 SE12      29.55R VSB 1/4 WCI  24
SAINT CLOUD    FOG       34  34 100 SE8       29.58S VSB 3/4
MINNEAPOLIS    CLOUDY    36  34  92 SE8       29.60F
$$

  *****  WEATHER ACROSS SOUTH DAKOTA  *****

CITY           SKY/WX    TMP DP  RH WIND       PRES   REMARKS
SIOUX FALLS    CLOUDY    40  39  97 S14       29.49F
BROOKINGS      CLOUDY    36  35  96 SE17      29.47F FOG
WATERTOWN      CLOUDY    36  35  96 SE14      29.43F
HURON          CLOUDY    37  37 100 S10       29.40F
SISSETON         N/A     34  34 100 S12       29.48F
ABERDEEN       CLOUDY    35  32  88 SE10      29.43F FOG
MITCHELL       CLOUDY    38  36  92 S15G24    29.44S
PIERRE         CLOUDY    17  15  92 SW3       29.37F FOG
MOBRIDGE       FOG       26  22  84 NW3       29.36F VSB 1
RAPID CITY     FAIR      39  30  70 NW14      29.36F
$$

  *****  SOME WEATHER IN NEARBY STATES *****

CITY           SKY/WX    TMP DP  RH WIND       PRES   REMARKS
GLASGOW MT     FAIR      32  27  81 W10       29.41F WCI  24
GREAT FALLS MT FAIR      35  25  66 SW14      29.43F
CHEYENNE WY    CLOUDY    34  23  64 NW10      29.45S
SCOTTSBLUFF NE FAIR      35  27  72 W6        29.43F
OMAHA NE       CLOUDY    43  39  86 SE7       29.54F FOG
DES MOINES IA  CLOUDY    39  38  96 S8        29.62R FOG
DAVENPORT IA   CLOUDY    39  38  96 S7        29.65S FOG
CHICAGO IL     CLOUDY    40  38  93 CALM      29.65R FOG
EAU CLAIRE WI  CLOUDY    35  35 100 E7        29.62F FOG
LA CROSSE WI   CLOUDY    39  36  89 E5        29.64S
$$

  *****  SOME NATIONAL WEATHER *****

CITY           SKY/WX    TMP DP  RH WIND       PRES   REMARKS
LA GUARDIA NY  CLOUDY    44  34  67 NE10      29.99F
RALEIGH NC     CLOUDY    52  50  93 E5        29.89F FOG
ATLANTA GA     FAIR      68  56  65 W13G22    29.88F
NEW ORLEANS LA PTSUNNY   74  68  81 W8        29.86F
OKLAHOMA CITY  FAIR      54  40  59 W21G29    29.53R
ALBUQUERQUE NM PTSUNNY   39  30  70 SW8       29.77R
SALT LAKE CITY PTSUNNY   33  32  96 SE7       29.57F FOG
LOS ANGELES CA LGT RAIN  54  52  93 SE10      29.67F FOG
BOISE ID       CLOUDY    38  28  67 SE14      29.40F
SEATTLE WA     MOCLDY    49  32  52 E14       29.13F
$$

*** WEATHER ACROSS MANITOBA...SASKATCHEWAN AND ONTARIO ***
                ***ONTARIO***

CITY           SKY/WX    TMP DP  RH WIND       PRES   REMARKS
GERALDTON      FOG       36  36 100 SW7       29.67F VSB 1/4
THUNDER BAY    FOG       32  32 100 E5        29.72S VSB 3/8
SIOUX LOOKOUT  FOG       34  34 100 S6        29.62F VSB 1/8
TORONTO        CLOUDY    37  34  87 E9        29.76F
BIG TROUT LK   CLOUDY    25  23  93 SE3       29.60F FOG
PICKLE LAKE    FOG       34  34 100 SW7       29.61S VSB 1/2
DRYDEN         FOG       34  34 100 SE10      29.61S VSB 1/4
KENORA         FOG       36  36 100 S9        29.57  VSB 1/4
$$
                *** MANITOBA***

CITY           SKY/WX    TMP DP  RH WIND       PRES   REMARKS
BRANDON        PTSUNNY   16  12  86 VRB2      29.43S
DAUPHIN        MOSUNNY   19  18  93 E8        29.40R FOG     WCI   9
ISLAND LAKE    FOG       25  23  93 S7        29.55S VSB 1/2 WCI  17
PILOT MOUND      N/A     28  28 100 S8          N/A  WCI  20
THE PAS        MOSUNNY   27  23  86 E6        29.40R WCI  20
THOMPSON       FLURRIES  28  27  93 E5        29.53S WCI  23
WINNIPEG       DRIZZLE   36  34  93 S12       29.51S FOG
LYNN LAKE      CLOUDY    28  28 100 SE13G18   29.46S WCI  18
CHURCHILL      FLURRIES  16  14  93 E14       29.75S WCI   1
GILLAM         SNOW      25  23  93 E5        29.62S VSB 1/8 WCI  19
$$
                ***SASKATCHEWAN***

CITY           SKY/WX    TMP DP  RH WIND       PRES   REMARKS
ESTEVAN        PTSUNNY   14  12  92 SW3       29.37S
KINDERSLEY     MOSUNNY   25  21  86 W2        29.35R
LLOYDMINSTER   MOCLDY    27  23  86 W9        29.34S WCI  17
PRINCE ALBERT  CLOUDY    25  23  93 SW2       29.32F
REGINA         PTSUNNY   18  16  93 SE5       29.36S WCI  11
YORKTON        MOSUNNY   25  21  86 S6        29.35F WCI  18
N. BATTLEFORD  SUNNY     25  25 100 NW5       29.36S WC1F1C2F2C3F3C4F4C5F5C6F6C7F7C8F8C9F9CaFaCbFbCcFcCdFdCe!



USA.gov is the U.S. government's official web portal to all federal, state and local government web resources and services.